STARLINK-4794 (53853 NORAD) Tracking and Keplerian Element Data

This shows tracking and keplerian element data for the satellite.

Feedback or suggestion? Click here.




ElementValue
Catalog53853
NameSTARLINK-4794
Epoch Orbit130
Epoch Day324.91667824
Epoch Year2022
RAAN307.6697
Inclination53.2175
Eccentricity0.0001245
Argument of Perigee73.0564
Mean Anonmoly127.4048
Mean Motion15.67564693
Decay Rate-0.01138494
L11 53853U 22114AM 22324.91667824 -.01138494 00000+0 -11326-1 0 9995
L22 53853 53.2175 307.6697 0001245 73.0564 127.4048 15.67564693 1306



Live tracking and technical data element details for STARLINK-4794 (NORAD 53853). STARLINK-4794 can be tracked NOW for your location showing map with azimuth and elevation plus other details from your city location.







IsCatalogInMostPopularTable: catalog: 53853, numindb: -1

Insert: records affected: 1


GetName: 53853 STARLINK-4794

Hit Count: inserted at: Mon, 28 Nov 2022 04:44:06 GMT